Regional Weather Roundup
Issued by NWS

Home | Current Version | Previous Version | Graphics & Text | Print | Product List | Glossary On
Versions: 1 2 3 4 5 6 7 8 9 10 11 12 13 14 15 16 17 18 19 20 21 22 23 24 25 26 27 28 29 30 31 32 33 34 35 36 37 38 39 40 41 42 43 44 45 46 47 48 49 50
000
ASUS43 KIND 020559
RWRIN

WEATHER ROUNDUP FOR INDIANA
NATIONAL WEATHER SERVICE INDIANAPOLIS IN
200 AM EDT TUE SEP 02 2014

NOTE: "FAIR" INDICATES FEW OR NO CLOUDS BELOW 12,000 FEET WITH NO
SIGNIFICANT WEATHER AND/OR OBSTRUCTIONS TO VISIBILITY.

* - STATION DOES NOT REPORT WEATHER SUCH AS PRECIPITATION OR FOG.

+ - STATION NOT QUALITY CONTROLLED BY THE NATIONAL WEATHER SERVICE.
    USE DATA WITH CAUTION...ESPECIALLY DEWPOINT AND RELATIVE
    HUMIDITY OBSERVATIONS.

INZ001>003-010>013-019-020-020700-
NORTHWEST INDIANA

CITY           SKY/WX    TMP DP  RH WIND       PRES   REMARKS
KNOX *+        MOCLDY    69  64  86 S5        29.88F
MONTICELLO +   MOCLDY    70  67  89 SW6       29.89F
VALPARAISO     FAIR      70  65  84 SW7       29.89F
6HR MIN TEMP:  70; 6HR MAX TEMP:  78;


$$

LMZ046-743>745-020700-
SOUTHERN LAKE MICHIGAN

STATION/POSITION TIME  TEMP WIND        PRES
                       AIR  DIR/SP/G
                 (UTC) (F)  (DEG/KT/KT) (MB)
MICHIGAN CITY    0500   73  200/ 15/ 20   N/A

$$

INZ004-005-014>016-021>024-020700-
NORTH CENTRAL INDIANA

CITY           SKY/WX    TMP DP  RH WIND       PRES   REMARKS
GOSHEN         FAIR      70  66  87 SW8       29.89R
6HR MIN TEMP:  70; 6HR MAX TEMP:  80;

SOUTH BEND     MOCLDY    71  65  81 SW10      29.88S
6HR MIN TEMP:  71; 6HR MAX TEMP:  79;


$$

INZ006>009-017-018-025>027-020700-
NORTHEAST INDIANA

CITY           SKY/WX    TMP DP  RH WIND       PRES   REMARKS
ANGOLA *+      CLEAR     70  61  73 SW6       29.89S
FORT WAYNE     MOCLDY    68  64  87 SW6       29.90F
6HR MIN TEMP:  67; 6HR MAX TEMP:  78;


$$

INZ028-029-035-036-043>045-051>053-020700-
WEST CENTRAL INDIANA

CITY           SKY/WX    TMP DP  RH WIND       PRES   REMARKS
GREENCASTLE +  LGT RAIN  70  68  94 CALM      29.98R
LAFAYETTE      LGT RAIN  69  68  96 SW5       29.92R
6HR MIN TEMP:  68; 6HR MAX TEMP:  77; 6HR PCP:  0.03;

TERRE HAUTE    TSTM      72  68  87 W9        29.96R FOG
6HR MIN TEMP:  71; 6HR MAX TEMP:  78; 6HR PCP:  0.05;


$$

INZ030>032-037>040-046>048-054>057-064-065-020700-
CENTRAL INDIANA

CITY           SKY/WX    TMP DP  RH WIND       PRES   REMARKS
FRANKFORT +    LGT RAIN N/A N/A N/A SW6       29.95R
INDIANAPOLIS   CLOUDY    72  69  90 SW10      29.95R
6HR MIN TEMP:  71; 6HR MAX TEMP:  78;

-EAGLE CREEK   CLOUDY    72  67  84 SW6       29.95R
6HR MIN TEMP:  72; 6HR MAX TEMP:  79;

KOKOMO *+      FAIR      70  64  83 SW9       29.93R
MT COMFORT *+  FAIR      70 N/A N/A SW3       29.96R
SHELBYVILLE    CLOUDY    74  71  91 S7        29.95R
6HR MIN TEMP:  73; 6HR MAX TEMP:  80;


$$

INZ033-034-041-042-049-050-058-059-020700-
EAST CENTRAL INDIANA

CITY           SKY/WX    TMP DP  RH WIND       PRES   REMARKS
MUNCIE         MOCLDY    71  67  87 SW6       29.94F
6HR MIN TEMP:  71; 6HR MAX TEMP:  80;


$$

INZ060-061-067>069-081>083-085>088-020700-
SOUTHWEST INDIANA

CITY           SKY/WX    TMP DP  RH WIND       PRES   REMARKS
EVANSVILLE     FAIR      79  72  79 S7        29.96R
6HR MIN TEMP:  77; 6HR MAX TEMP:  82;


$$

INZ062-063-066-070>080-084-089>092-020700-
SOUTH CENTRAL AND SOUTHEAST INDIANA

CITY           SKY/WX    TMP DP  RH WIND       PRES   REMARKS
BLOOMINGTON    CLOUDY    74  71  91 SW6       29.96R
6HR MIN TEMP:  72; 6HR MAX TEMP:  77;


$$




USA.gov is the U.S. government's official web portal to all federal, state and local government web resources and services.